Weather in Yekimovka

Russia / Ryazan Oblast     54°28′39″N   39°36′09″E
temp.,
°C
wind,
m/s
gust,
m/s
humid.,
%
clouds,
%
prec.,
mm/h
press.,
hPa
HPBL,
m
21 january, fri
fri2100:00−9s71592100 0.0 1007435
03:00−8s71594100 0.5 1006445
06:00−8s71494100 0.7 1004464
09:00−7sse71594100 1.8 1004539
12:00−7sse81594100 0.8 1002615
15:00−6sse71394100 1.9 1001704
18:00−5sse61295100 0.8 1000532
21:00−4s5109486 1.6 1000548
22 january, sat
sat2200:00−9s5129423 0.0 1002224
03:00−8sse6149393 0.1 1003409
06:00−7sse61393100 0.1 1004450
09:00−7sse61294100 0.3 1006353
12:00−7sse5109496 0.1 1008301
15:00−7sse589577 0.1 1010282
18:00−11sse389790 0.0 1012127
21:00−10s3796100 0.1 1014151
23 january, sun
sun2300:00−14sse3399100 0.0 101737
03:00−10se2396100 0.1 101860
06:00−10se2496100 0.1 102182
09:00−16sse229857 0.1 102410
12:00−11sse009559 0.0 102740
15:00−11e229739 0.0 102911
18:00−16nne2210073 0.0 103110
21:00−18ene22100100 0.0 103311
24 january, mon
mon2400:00−18nne35100100 0.0 103545
03:00−18ne35100100 0.1 103565
06:00−18nne36100100 0.0 103581
09:00−16nne499898 0.1 1036138
12:00−10ne4997100 0.1 1035203
15:00−7ne379657 0.1 1034256
18:00−11ene379888 0.0 103498
21:00−14ese239854 0.0 103443
25 january, tue
tue2500:00−17se229957 0.0 103411
03:00−18se2210075 0.0 103218
06:00−17sse349831 0.0 103149
09:00−18s249831 0.0 102949
12:00−12s369429 0.0 1028148
15:00−11sse369558 0.0 1025149
18:00−14s379734 0.0 102485
21:00−15s499873 0.0 1023113